Regional Weather Roundup
Issued by NWS Wakefield, VA

Home | Current Version | Previous Version | Graphics & Text | Print | Product List | Glossary On
Versions: 1 2 3 4 5 6 7 8 9 10 11 12 13 14 15 16 17 18 19 20 21 22 23 24 25 26 27 28 29 30 31 32 33 34 35 36 37 38 39 40 41 42 43 44 45 46 47 48 49 50
000
ASUS41 KAKQ 251610
RWRAKQ

REGIONAL WEATHER ROUNDUP
NATIONAL WEATHER SERVICE WAKEFIELD VA
1200 PM EDT FRI JUL 25 2014

Note: "fair" indicates few or no clouds below 12,000 feet with no
significant weather and/or obstructions to visibility. * = Denotes
station may not report precipitation (e.g., rain,snow,etc.),
thunder or fog.

VAZ042-051-052>054-056-251700-
NORTHERN VIRGINIA

CITY           SKY/WX    TMP DP  RH WIND       PRES   REMARKS
WASH NATIONAL  MOSUNNY   80  53  39 NW9G18    30.07F
DULLES         MOSUNNY   76  50  40 NW10      30.07F
FORT BELVOIR   SUNNY     78  54  43 NW5       30.07F
QUANTICO       MOSUNNY   77  56  48 NW7       30.07F
FREDERICKSBRG* SUNNY     78  58  49 CALM      30.07S
STAFFORD*      SUNNY     76  56  49 NW6       30.11F
WARRENTON      SUNNY     78  63  58 W5        30.08F
CULPEPER*      SUNNY    N/A N/A N/A W5        30.08F
MANASSAS*      NOT AVBL
LEESBURG*      SUNNY     77  59  53 NW7       30.08F
WINCHESTER     SUNNY     75  54  46 NW6       30.08F
$$

VAZ048-049-060>072-079>083-251700-
CENTRAL AND SOUTH CENTRAL VIRGINIA...AND NORTH CENTRAL NORTH CAROLINA

CITY           SKY/WX    TMP DP  RH WIND       PRES   REMARKS
RICHMOND       MOSUNNY   81  56  42 NW7       30.07F
CHESTERFIELD*  MOSUNNY   79  54  41 NE8       30.09F
HANOVER        SUNNY     78  57  48 CALM      30.09F
TAPPAHANNOCK*  MOSUNNY   78  54  42 NW6       30.08F
CHARLOTTSVILLE SUNNY     75  57  53 VRB3      30.08F
ORANGE*        SUNNY     77  59  53 N3        30.09F
LOUISA*        SUNNY     75  57  53 NE3       30.08F
FARMVILLE*     SUNNY     77  59  53 NE3       30.07F
SOUTH HILL*    SUNNY     81  61  50 CALM      30.13S
ROANOKE RAPIDS MOSUNNY   81  64  57 NE6       30.08R
RALEIGH        PTSUNNY   79  66  65 E8        30.08S
$$

VAZ088>098-251700-
SOUTHEAST VIRGINIA

CITY           SKY/WX    TMP DP  RH WIND       PRES   REMARKS
NORFOLK        SUNNY     79  57  46 N12       30.06R
VIRGINIA BEACH MOSUNNY   80  58  46 N14       30.05R
NORFOLK NAVAL  MOSUNNY   81  59  47 N13       30.08R
WEST POINT*    SUNNY     81  55  41 N5        30.08S
NEWPORT NEWS   SUNNY     83  59  44 MISG      30.06S
LANGLEY AFB    SUNNY     79  59  49 NE10      30.05S
FORT EUSTIS    SUNNY     79  61  54 N10       30.05R
WILLIAMSBURG*  SUNNY     82  64  54 N3        30.07F
FRANKLIN*      SUNNY     79  59  50 N6        30.07S
WAKEFIELD      SUNNY     80  57  45 N6        30.07S
$$

VAZ020-022-025-037-045-251700-
WESTERN AND SOUTHWEST VIRGINIA

CITY           SKY/WX    TMP DP  RH WIND       PRES   REMARKS
STAUNTON*      SUNNY     72  60  65 CALM      30.11F
HOT SPRINGS VA CLOUDY    62  54  76 CALM      30.20F
LYNCHBURG      CLOUDY    74  62  66 CALM      30.11S
DANVILLE       MOSUNNY   78  63  59 VRB3      30.09S
MARTINSVILLE   PTSUNNY   81  62  53 S5        30.11F
ROANOKE        MOSUNNY   75  58  55 SE5       30.12S
BLACKSBURG     MOSUNNY   75  63  64 CALM        N/A
DUBLIN*        MOSUNNY   74  61  63 CALM      30.13F
MARION*        PTSUNNY  N/A N/A N/A W5        30.15F
HILLSVILLE*    CLOUDY    72  61  67 SW6       30.16S
RICHLANDS*     PTSUNNY   67  60  77 CALM      30.16F
WISE*          CLOUDY    64  61  88 NE3       30.16F
ABINGDON*      PTSUNNY   75  64  67 W6        30.11F
$$

MDZ021>025-VAZ099-100-251700-
SOUTHERN MARYLAND AND THE DELMARVA PENINSULA

CITY           SKY/WX    TMP DP  RH WIND       PRES   REMARKS
PATUXENT RIVER SUNNY     76  52  43 N6        30.06F
BAY BRIDGE APT   N/A     73  50  43 NW5       30.05F
LEONARDTOWN    SUNNY     73  52  46 N3        30.07F
DOVER          SUNNY     75  59  57 VRB5      30.02F
GEORGETOWN     SUNNY     77  57  50 VRB6      30.05R
EASTON         SUNNY     75  57  53 NW6       30.09S
CAMBRIDGE      SUNNY     77  50  38 NW10      30.05F
SALISBURY      NOT AVBL
OCEAN CITY     SUNNY     79  58  48 W7        30.03S
WALLOPS ISLAND SUNNY     80  54  40 NW9       30.04S
ACCOMACK*        N/A     77  52  41 NW13      30.05S
$$

NCZ012>017-030>032-251700-
EASTERN NORTH CAROLINA

CITY           SKY/WX    TMP DP  RH WIND       PRES   REMARKS
ELIZABETH CITY SUNNY     80  62  54 N10       30.06R
AHOSKIE*       SUNNY     78  62  58 N5        30.07S
EDENTON*       PTSUNNY   79  66  64 N5        30.06R
CURRITUCK*     MOSUNNY   81  62  50 N7        30.07R
KILL DEVIL HLS SUNNY     78  68  70 N12       30.04R
MANTEO         NOT AVBL
CAPE HATTERAS  SUNNY     81  70  69 N7        30.05R
GOLDSBORO      CLOUDY    76  70  82 VRB5      30.05S
WASHINGTON     SUNNY     78  67  69 NE6       30.06S
GREENVILLE     MOSUNNY   79  66  65 NE8       30.08S
NEW BERN       MOSUNNY   80  69  69 VRB3      30.07S
WILMINGTON     CLOUDY    77  72  84 N5        30.06R
$$

VAZ048-251700-
ELSEWHERE

CITY           SKY/WX    TMP DP  RH WIND       PRES   REMARKS
HARRISBURG PA  MOSUNNY   75  53  46 W3        30.05F
BALTIMORE      MOSUNNY   78  52  40 NW13      30.05F
ANNAPOLIS      SUNNY     76  53  44 VRB7      30.05F
ANDREWS AFB    SUNNY     77  54  43 NW9       30.06F
WILMINGTON DE  SUNNY     77  55  46 MISG      30.05S
PHILADELPHIA   MOSUNNY   78  55  44 W7        30.03F
WILDWOOD NJ*   SUNNY     75  59  57 W8        30.05S
ATLANTIC CITY  MOSUNNY   79  59  50 N6        30.02S
HENDERSON NC   SUNNY     77  59  52 E8        30.08S
GREENSBORO     PTSUNNY   77  66  68 VRB3      30.09S
ROCKY MOUNT    SUNNY     80  64  58 NE8       30.07S
FAYETTEVILLE   CLOUDY    82  68  62 NE8       30.05S
CHARLOTTE      MOSUNNY   80  65  59 N5        30.09R
$$

VAZ100-251700-
MARINE

STATION/POSITION TIME  TEMP    WIND        PRES    WAVE   SWELL
                       AIR SEA DIR/SP/G            HT/PER HT/PER
                 (UTC) (F)     (DEG/KT/KT) (MB)    (FT/S) (FT/S)
44066 TX TWR #4  1600   72 74   40/ 10/ 12 1015.5R   3/ 8   2/ 8
CAPE MAY NJ      1600   75 77  310/  5/ 10 1016.8S
LEWES DE         1600   71 72  360/  9/ 10 1017.1R
15NM E FENWICK I 1600   71 76              1017.3R   2/ 9
OCEAN-CITY-INLET 1600   75 70   30/  7/  9 1016.6S
WACHAPREAGUE VA  1600   79 79  320/  2/  9 1017.4S
THOMAS POINT MD  1600   73 79   10/  7/  9 1018.3F
GOOSES REEF MD   1600   72     360/  6/ 12 1018.8R
COVE POINT MD    1600   72     360/  9/ 11 1018.0S
SOLOMONS ISLAND  1600      80                N/A
BISHOPS HEAD MD  1600   75 77  310/ 10/ 14 1017.3S
PINEY POINT MD   1600          320/  8/ 10   N/A
POTOMAC MD       1600   75     320/  8/ 12 1017.3F
CAMBRIDGE MD     1600   74 79  310/  9/ 14 1017.6R
LEWISETTA VA     1600   75 78  330/  5/  8 1017.8F
RAPPAHANNOCK LGT 1600          340/ 13/ 15 1018.4S
STINGRAY PT      1600   75      20/ 10/ 12 1018.7R
YORK RVR RNG VA  1600   76      20/  9/ 10 1017.3F
YORKTOWN VA      1600   77 80  350/  8/ 10 1017.6F
JAMESTOWN VA     1600   75      30/  8/ 12   N/A
DOMINION TERM VA 1600   78      20/  2/  6 1018.0R
KIPTOPEKE VA     1600      81  350/ 17/ 19   N/A
CHES BAY BRIDGE  1600   75 78  350/ 13/ 15 1017.2S
CAPE HENRY VA    1600   75     350/ 15/ 18 1016.6R
WILLOUBY STN VA  1600           10/ 12/ 15 1017.2R
S CRANEY ISL VA  1600          340/ 10/ 13 1017.9R
CAPE HENRY BUOY  1600      77                N/A     3/ 4
1ST LANDING BUOY 1600   76      10/ 14/ 16 1017.4S
CAPE CHARLES BUO 1600      75                N/A     2/ 7
OFFSHORE WE BUOY 1600      78                N/A     3/ 4
64NM E OF VA BCH 1600   76 78  350/ 14/ 16 1016.4R   3/ 7   2/ 7
DUCK PIER NC     1600   74 75  360/ 11/ 12 1016.9R
44056 DUCK FRF   1600                        N/A     2/ 3
OREGON INLET NC  1600   78 77  350/  9/ 14 1017.2S
HATTERAS NC      1600   78 79   20/  8/ 12 1018.0R
DIAMOND SHLS NC  1600          VRB  6/  8  1017.6R   3/ 8   2/ 8
CAPE LOOKOUT NC  1600   76      40/ 11/ 12 1017.4F
$$


USA.gov is the U.S. government's official web portal to all federal, state and local government web resources and services.